TimeEST,TemperatureF,Dew PointF,Humidity,Sea Level PressureIn,VisibilityMPH,Wind Direction,Wind SpeedMPH,Gust SpeedMPH,PrecipitationIn,Events,Conditions,WindDirDegrees,DateUTC
12:54 AM,19.9,7.0,57,29.96,-9999.0,West,15.0,26.5,N/A,,Unknown,280,2014-02-25 05:54:00
1:54 AM,19.0,7.0,59,29.96,-9999.0,West,13.8,-,N/A,,Unknown,280,2014-02-25 06:54:00
2:54 AM,18.0,6.1,60,29.96,-9999.0,WSW,10.4,-,N/A,,Unknown,250,2014-02-25 07:54:00
3:54 AM,18.0,6.1,60,29.97,-9999.0,West,15.0,-,N/A,,Unknown,260,2014-02-25 08:54:00
4:54 AM,17.1,6.1,62,29.98,-9999.0,WSW,10.4,-,N/A,,Unknown,250,2014-02-25 09:54:00
5:54 AM,16.0,6.1,65,29.98,-9999.0,West,12.7,-,N/A,,Unknown,260,2014-02-25 10:54:00
6:54 AM,16.0,5.0,62,29.99,-9999.0,West,11.5,-,N/A,,Unknown,260,2014-02-25 11:54:00
7:54 AM,18.0,6.1,60,29.99,-9999.0,West,12.7,-,N/A,,Unknown,260,2014-02-25 12:54:00
8:54 AM,19.0,6.1,57,29.99,-9999.0,West,13.8,21.9,N/A,,Unknown,260,2014-02-25 13:54:00
9:54 AM,19.9,5.0,52,29.98,-9999.0,West,18.4,26.5,N/A,,Unknown,280,2014-02-25 14:54:00
10:54 AM,21.0,3.9,48,29.96,-9999.0,West,13.8,26.5,N/A,,Unknown,270,2014-02-25 15:54:00
11:54 AM,21.9,5.0,48,29.94,-9999.0,West,19.6,26.5,N/A,,Unknown,280,2014-02-25 16:54:00
12:54 PM,24.1,6.1,46,29.92,-9999.0,West,16.1,21.9,N/A,,Unknown,260,2014-02-25 17:54:00
1:54 PM,25.0,6.1,45,29.89,-9999.0,WNW,20.7,27.6,N/A,,Unknown,290,2014-02-25 18:54:00
2:54 PM,25.0,6.1,45,29.88,-9999.0,West,21.9,34.5,N/A,,Unknown,280,2014-02-25 19:54:00
3:54 PM,25.0,5.0,43,29.88,-9999.0,West,19.6,33.4,N/A,,Unknown,260,2014-02-25 20:54:00
4:54 PM,24.1,6.1,46,29.88,-9999.0,WNW,17.3,25.3,N/A,,Unknown,290,2014-02-25 21:54:00
5:54 PM,21.9,6.1,51,29.91,-9999.0,West,11.5,21.9,N/A,,Unknown,280,2014-02-25 22:54:00
6:54 PM,21.0,6.1,53,29.93,-9999.0,WNW,13.8,23.0,N/A,,Unknown,290,2014-02-25 23:54:00
7:54 PM,19.9,6.1,55,29.94,-9999.0,WNW,11.5,-,N/A,,Unknown,290,2014-02-26 00:54:00
8:54 PM,18.0,6.1,60,29.95,-9999.0,WNW,11.5,-,N/A,,Unknown,290,2014-02-26 01:54:00
9:54 PM,18.0,6.1,60,29.97,-9999.0,West,10.4,-,N/A,,Unknown,270,2014-02-26 02:54:00
10:54 PM,17.1,5.0,59,29.96,-9999.0,West,15.0,-,N/A,,Unknown,280,2014-02-26 03:54:00
11:54 PM,15.1,5.0,64,29.96,-9999.0,WNW,12.7,-,N/A,,Unknown,290,2014-02-26 04:54:00